GW4962 Weather Reports


time (UTC)temp
C
wind
direction
speed
KPH
gust
KPH
rain 1hr
cm
rain 24hr
cm
rain mn
cm
humidity
%
barometer
mb
20260502123042 4 159 0.0 1.6 0.00 0.00 0.00 71 1020.8
20260502121546 2 0 0.0 0.0 0.00 0.00 0.00 75 1020.9
20260502114538 0 0 0.0 0.0 0.00 0.00 0.00 80 1020.7
20260502113037 0 0 0.0 0.0 0.00 0.00 0.00 80 1020.8
20260502111538 0 0 0.0 0.0 0.00 0.00 0.00 81 1020.8
20260502110037 0 0 0.0 0.0 0.00 0.00 0.00 82 1020.9
20260502104548 0 0 0.0 0.0 0.00 0.00 0.00 81 1020.9
20260502103039 0 0 0.0 0.0 0.00 0.00 0.00 80 1021.0
20260502101538 0 0 0.0 0.0 0.00 0.00 0.00 80 1021.0
20260502070039 1 0 0.0 0.0 0.00 0.00 0.00 78 1021.4
20260502064556 1 0 0.0 0.0 0.00 0.00 0.00 78 1021.4
20260502063037 1 0 0.0 0.0 0.00 0.00 0.00 77 1021.4
20260502061539 2 0 0.0 0.0 0.00 0.00 0.00 77 1021.5
20260502060037 2 0 0.0 0.0 0.00 0.00 0.00 74 1021.5
20260502054540 2 0 0.0 0.0 0.00 0.00 0.00 75 1021.4
20260502053037 2 0 0.0 0.0 0.00 0.00 0.00 74 1021.4
20260502051557 2 0 0.0 0.0 0.00 0.00 0.00 74 1021.3
20260502050037 2 0 0.0 0.0 0.00 0.00 0.00 74 1021.4
20260502044539 2 0 0.0 0.0 0.00 0.00 0.00 73 1021.5
20260502043043 3 0 0.0 0.0 0.00 0.00 0.00 72 1021.4
20260502041539 3 0 0.0 0.0 0.00 0.00 0.00 70 1021.4
20260502040039 3 0 0.0 0.0 0.00 0.00 0.00 68 1021.3
20260502034544 4 0 0.0 0.0 0.00 0.00 0.00 66 1021.3
20260502033049 5 0 0.0 0.0 0.00 0.00 0.00 63 1021.3
20260502031540 5 0 0.0 0.0 0.00 0.00 0.00 60 1020.9
20260502030039 6 0 0.0 0.0 0.00 0.00 0.00 57 1020.9
20260502024539 6 0 0.0 0.0 0.00 0.00 0.00 54 1020.8
20260502023033 7 0 0.0 0.0 0.00 0.00 0.00 52 1020.6
20260502021539 7 0 0.0 3.2 0.00 0.00 0.00 51 1020.6
20260502020041 8 0 0.0 0.0 0.00 0.00 0.00 50 1020.6
20260502014539 8 0 0.0 6.4 0.00 0.00 0.00 49 1020.4
20260502013037 9 44 0.0 4.8 0.00 0.00 0.00 47 1020.2
20260502011545 10 0 1.6 8.0 0.00 0.00 0.00 45 1020.1
20260502010042 10 39 0.0 9.7 0.00 0.00 0.00 47 1019.9
20260502004538 10 13 1.6 14.5 0.00 0.03 0.00 44 1019.8
20260502003039 10 32 3.2 9.7 0.00 0.03 0.00 43 1019.8
20260502001537 11 36 1.6 8.0 0.00 0.03 0.00 43 1019.9
20260502000037 11 24 3.2 16.1 0.00 0.03 0.00 43 1019.8
20260501234551 11 36 3.2 8.0 0.00 0.03 0.00 42 1019.7
20260501233040 11 30 3.2 14.5 0.00 0.03 0.00 43 1019.8
20260501231549 11 30 3.2 11.3 0.00 0.03 0.00 43 1019.8
20260501230038 12 114 6.4 17.7 0.00 0.03 0.00 41 1019.7
20260501224538 12 76 3.2 8.0 0.00 0.03 0.00 42 1019.7
20260501223037 11 63 3.2 9.7 0.00 0.03 0.00 41 1019.7
20260501221534 12 28 6.4 16.1 0.00 0.03 0.00 42 1019.7
20260501220040 12 46 6.4 25.7 0.00 0.03 0.00 42 1019.5
20260501214549 12 324 1.6 17.7 0.00 0.03 0.00 42 1019.7
20260501213045 12 41 1.6 12.9 0.00 0.03 0.00 45 1019.8
20260501211537 12 315 3.2 17.7 0.00 0.03 0.00 44 1020.0
20260501210037 12 138 4.8 17.7 0.00 0.03 0.00 46 1019.8
20260501204542 12 320 3.2 17.7 0.00 0.03 0.00 43 1020.0
20260501203037 12 342 1.6 12.9 0.00 0.03 0.00 44 1020.2
20260501201545 12 177 1.6 12.9 0.00 0.03 0.00 46 1020.0
20260501200037 12 22 3.2 24.1 0.00 0.03 0.00 47 1020.2
20260501194546 11 329 6.4 16.1 0.00 0.03 0.00 47 1020.2
20260501193037 11 24 3.2 14.5 0.00 0.03 0.00 49 1020.4
20260501191536 11 319 3.2 12.9 0.00 0.03 0.00 49 1020.5
20260501190038 11 349 1.6 17.7 0.00 0.03 0.00 53 1020.5
20260501184537 10 41 3.2 20.9 0.00 0.03 0.00 55 1020.5
20260501183039 10 316 4.8 16.1 0.00 0.03 0.00 50 1020.6
20260501181540 10 28 6.4 19.3 0.00 0.03 0.00 52 1020.7
20260501180041 9 125 4.8 16.1 0.00 0.03 0.00 52 1020.7
20260501174537 9 28 3.2 17.7 0.00 0.03 0.00 51 1020.8
20260501173043 9 31 3.2 16.1 0.00 0.03 0.00 57 1020.8
20260501171550 8 71 4.8 17.7 0.00 0.03 0.00 55 1020.8
20260501170037 8 346 1.6 29.0 0.00 0.03 0.00 56 1020.8
20260501164542 8 9 6.4 20.9 0.00 0.03 0.00 54 1020.8
20260501163038 7 315 3.2 17.7 0.00 0.03 0.00 58 1020.6
20260501161536 7 314 1.6 20.9 0.00 0.03 0.00 58 1020.7
20260501160051 7 33 1.6 9.7 0.00 0.03 0.00 57 1020.8
20260501154541 7 340 4.8 16.1 0.00 0.03 0.00 58 1020.6
20260501153037 7 89 3.2 12.9 0.00 0.03 0.00 60 1020.7
20260501151546 7 339 1.6 12.9 0.00 0.03 0.00 58 1020.7
20260501150037 7 313 1.6 9.7 0.00 0.03 0.00 62 1020.8
20260501144540 7 331 1.6 17.7 0.00 0.03 0.00 64 1020.8
20260501143043 6 51 4.8 16.1 0.00 0.03 0.00 64 1020.8
20260501141540 6 360 3.2 12.9 0.00 0.03 0.00 67 1020.8
20260501140039 5 53 3.2 9.7 0.00 0.03 0.00 67 1020.8